Location: Terre Du Lac
(37.9120°N, 90.6250°W)
Time: 16:45:02
(UTC-06:00)

Hubble Space Telescope - Visible Passes

Search period start: 28 November 2014 00:00
Search period end: 08 December 2014 00:00
Orbit: 546 x 549 km, 28.5° (Epoch: 27 November)

Date Brightness Start Highest point End Pass type
(mag) Time Alt. Az. Time Alt. Az. Time Alt. Az.
28 Nov 3.0 04:31:36 19° SSE 04:31:36 19° SSE 04:33:34 10° SE visible
28 Nov 3.2 06:08:59 10° SW 06:11:06 14° SSW 06:13:13 10° SSE visible
29 Nov 3.3 04:24:32 16° SSE 04:24:32 16° SSE 04:25:50 10° SE visible
29 Nov 3.3 06:02:05 10° SW 06:03:24 11° SSW 06:04:43 10° S visible
30 Nov 3.6 04:17:28 12° SSE 04:17:28 12° SSE 04:18:01 10° SE visible
